"Pseudo-MPEC" for P11kncW

Created 2021 Sep 16 10:07:21 UT using Find_Orb

Click here for an explanation of pseudo-MPECs

 
 Astrometry: 
     P11kncW  C2021 09 071orc_awCM=j2$\-ub0GZ_-\Y=:m0%b]'KBB?Is/5SgqaZKd:0KPCF51
     P11kncW  C2021 09 07iH7\Yxw$8?Z1CT@X-aPH$dsAstrometryhX]mcZ\1qrDgq:uR8/cF51
     P11kncW  C2021 09 07[c]9KECsI-Gk@*^)eun6m9$Sv9,4#Iof-/7,Re/redacted;:2TZF51
     P11kncW  C2021 09 09plc[g1L5J*SXG;Jg06N?(ZLmCfYwOj=11N7FyAWGGObKsaElC%j#F51
     P11kncW  C2021 09 09^IT^yx!d0P!0)Bd:ieiR6click+KxPqu06fgt5A34@4xhere*y:GF51
     P11kncW  C2021 09 09A%a1jP=[6B3f9.POt=$0_kxY%wcDPWkL6-][]svO:5]j?2bwvGhtF51
     P11kncW  C2021 09 09ZmKCkVT7(kDeL[?hU;=o*T9I@!F4k\\pY'L4T%sQxls-ajlxo;?qF51
     P11kncW KC2021 09 15.43096 04 37 51.85 -22 25 37.8    ~9FB7 21.2 RoNEOCP291
     P11kncW KC2021 09 15.43844 04 37 52.25 -22 25 37.0    ~9FB7 21.0 RoNEOCP291
     P11kncW KC2021 09 15.44593 04 37 52.62 -22 25 36.3    ~9FB7 20.9 RoNEOCP291
     P11kncW  C2021 09 15[M*L0fCinIWf$\)wg[j`h+*Dw)9mHd/]8formd4aE\0#H4_+fMf0F51
     P11kncW  C2021 09 15gT;rR9!l,#0o`J$P1J2BM[0f@vm-,[;H-n;b:!eJJ%MfP+=;UO7\F51
     P11kncW  C2021 09 15dHI+xpl+Qa-8UHexplanationI#?NMEU9O`VDp`\,$^//\UA1=(JF51

Station data:
(291) LPL/Spacewatch II  (N31.961669 W111.599905)  US/Arizona.  Observers J.
   V. Scotti, R. S. McMillan. 1.8-m f/2.7 reflector + CCD.
(F51) Pan-STARRS 1, Haleakala  (N20.707235 W156.255910)  US/Hawaii.
   Observers N. Primak, A. Schultz, S. Watters, J. Thiel, T. Goggia. Measurer
   PS1 Science Consortium. 1.8-m Ritchey-Chrétien + CCD.

Orbital elements:  P11kncW
   Perihelion 2021 Sep 27.733781 +/- 3.76653 TT = 17:36:38 (JD 2459485.233781)
Epoch 2021 Sep 15.0 TT = JDT 2459472.5   Earth MOID: 0.7674   AutoNEOCP
M 356.91744113 +/- 1.0357466        (J2000 ecliptic)
n   0.24207726 +/- 0.019932         Peri.  309.03395 +/- 2.6401941
a   2.54976437 +/- 0.139929         Node    75.85866 +/- 0.9841877
e   0.3519851 +/- 0.0290633         Incl.   33.03350 +/- 0.0883031
P   4.07                   H 19.1   G  0.15   U 10.1  
q 1.65228508 +/- 0.0183223    Q 3.44724365 +/- 0.290749
From 13 observations 2021 Sept. 7-15; mean residual 0".08
Residuals in arcseconds: 
210907 F51  .04-  .03+    210909 F51  .04+  .03+    210915 F51  .00   .10-    
210907 F51  .00   .03-    210909 F51  .02+  .16-    210915 F51  .01+  .17-    
210907 F51  .03+  .04+    210915 291  .09-  .21+    210915 F51  .00   .01+    
210909 F51  .02-  .02-    210915 291  .13+  .13+    
210909 F51  .04-  .07+    210915 291  .06-  .05-    

Ephemerides (geocentric):
Date (UTC) HH   RA              Dec         delta   r     elong  mag " sig PA
---- -- -- --  -------------   -----------  ------ ------ -----  --- ---- ---
2021 09 16 10  04 38 43.726   -22 23 25.95  1.0903 1.6547 104.2 21.8 .625  50
2021 09 16 11  04 38 45.879   -22 23 20.52  1.0900 1.6547 104.2 21.8 .633  48
2021 09 16 12  04 38 48.028   -22 23 15.08  1.0897 1.6547 104.3 21.8 .642  47
2021 09 16 13  04 38 50.174   -22 23 09.63  1.0895 1.6547 104.3 21.8 .650  46
2021 09 16 14  04 38 52.315   -22 23 04.17  1.0892 1.6547 104.3 21.8 .659  45
2021 09 16 15  04 38 54.452   -22 22 58.70  1.0889 1.6546 104.3 21.8 .668  44
2021 09 16 16  04 38 56.585   -22 22 53.22  1.0886 1.6546 104.3 21.8 .678  43
2021 09 16 17  04 38 58.714   -22 22 47.74  1.0883 1.6546 104.4 21.8 .687  42
2021 09 16 18  04 39 00.839   -22 22 42.24  1.0880 1.6546 104.4 21.8 .697  41
2021 09 16 19  04 39 02.959   -22 22 36.74  1.0877 1.6546 104.4 21.8 .707  40
2021 09 16 20  04 39 05.076   -22 22 31.23  1.0874 1.6546 104.4 21.8 .718  39
2021 09 16 21  04 39 07.189   -22 22 25.70  1.0871 1.6545 104.4 21.8 .728  39
2021 09 16 22  04 39 09.297   -22 22 20.17  1.0868 1.6545 104.5 21.8 .739  38
2021 09 16 23  04 39 11.401   -22 22 14.63  1.0866 1.6545 104.5 21.8 .750  37
2021 09 17 00  04 39 13.502   -22 22 09.08  1.0863 1.6545 104.5 21.8 .762  36
2021 09 17 01  04 39 15.598   -22 22 03.52  1.0860 1.6545 104.5 21.8 .773  35
2021 09 17 02  04 39 17.690   -22 21 57.95  1.0857 1.6544 104.5 21.8 .785  34
2021 09 17 03  04 39 19.778   -22 21 52.37  1.0854 1.6544 104.6 21.8 .797  33
2021 09 17 04  04 39 21.861   -22 21 46.79  1.0851 1.6544 104.6 21.8 .810  32
2021 09 17 05  04 39 23.941   -22 21 41.19  1.0848 1.6544 104.6 21.8 .823  31
2021 09 17 06  04 39 26.016   -22 21 35.58  1.0845 1.6544 104.6 21.8 .836  30
2021 09 17 07  04 39 28.088   -22 21 29.97  1.0842 1.6544 104.6 21.8 .849  30
2021 09 17 08  04 39 30.155   -22 21 24.34  1.0839 1.6543 104.7 21.8 .862  29
2021 09 17 09  04 39 32.218   -22 21 18.70  1.0837 1.6543 104.7 21.8 .876  28
2021 09 17 10  04 39 34.277   -22 21 13.06  1.0834 1.6543 104.7 21.8 .890  27
2021 09 17 11  04 39 36.332   -22 21 07.41  1.0831 1.6543 104.7 21.8 .904  26
2021 09 17 12  04 39 38.383   -22 21 01.74  1.0828 1.6543 104.8 21.8 .919  26
2021 09 17 13  04 39 40.429   -22 20 56.07  1.0825 1.6543 104.8 21.8 .934  25
2021 09 17 14  04 39 42.472   -22 20 50.38  1.0822 1.6543 104.8 21.8 .949  24
2021 09 17 15  04 39 44.510   -22 20 44.69  1.0819 1.6542 104.8 21.8 .964  23
2021 09 17 16  04 39 46.544   -22 20 38.99  1.0816 1.6542 104.8 21.8 .980  23
2021 09 17 17  04 39 48.574   -22 20 33.27  1.0813 1.6542 104.9 21.8 1.00  22
2021 09 17 18  04 39 50.600   -22 20 27.55  1.0810 1.6542 104.9 21.8 1.01  21
2021 09 17 19  04 39 52.622   -22 20 21.82  1.0807 1.6542 104.9 21.8 1.03  20
2021 09 17 20  04 39 54.639   -22 20 16.07  1.0805 1.6542 104.9 21.8 1.05  20
2021 09 17 21  04 39 56.653   -22 20 10.32  1.0802 1.6541 104.9 21.8 1.06  19
2021 09 17 22  04 39 58.662   -22 20 04.56  1.0799 1.6541 105.0 21.8 1.08  18
2021 09 17 23  04 40 00.667   -22 19 58.78  1.0796 1.6541 105.0 21.8 1.10  18
2021 09 18 00  04 40 02.668   -22 19 53.00  1.0793 1.6541 105.0 21.8 1.12  17
2021 09 18 01  04 40 04.664   -22 19 47.21  1.0790 1.6541 105.0 21.8 1.13  16
2021 09 18 02  04 40 06.657   -22 19 41.40  1.0787 1.6541 105.0 21.8 1.15  16
2021 09 18 03  04 40 08.645   -22 19 35.59  1.0784 1.6540 105.1 21.8 1.17  15
2021 09 18 04  04 40 10.630   -22 19 29.77  1.0781 1.6540 105.1 21.8 1.19  14
2021 09 18 05  04 40 12.609   -22 19 23.93  1.0778 1.6540 105.1 21.8 1.21  14
2021 09 18 06  04 40 14.585   -22 19 18.09  1.0776 1.6540 105.1 21.8 1.23  13
2021 09 18 07  04 40 16.557   -22 19 12.24  1.0773 1.6540 105.1 21.8 1.25  13
2021 09 18 08  04 40 18.524   -22 19 06.37  1.0770 1.6540 105.2 21.8 1.27  12
2021 09 18 09  04 40 20.488   -22 19 00.50  1.0767 1.6540 105.2 21.8 1.29  12